Flag for Albania Weather past 2 weeks in Tirana, Albania

Now
97 °F

Sunny.


Feels Like: 99 °F
Forecast: 70 / 98 °F
Wind: No wind

Location: Tirana Airport

Current Time: Aug 2, 2015 at 1:09:06 PM

Latest Report: Aug 2, 2015 at 12:20 PM


Visibility: 10 mi

Pressure: 29.98 "Hg

Humidity: 34%

Dew point: 64 °F

Location of TiranaLocation

Historic Weather in Tirana — Graph

°F

Tirana temperature yesterday

Maximum temperature yesterday: 97 °F (at 1:50 PM)
Minimum temperature yesterday: 70 °F (at 5:20 AM)
Average temperature yesterday: 83 °F

Past Weeks' High & Low Weather Summary

 TemperatureHumidityPressure
High104 °F (Jul 21, 2:50 PM)94% (Aug 2, 1:50 AM)30.01 "Hg (Aug 2, 1:50 AM)
Low68 °F (Jul 27, 4:20 AM)22% (Jul 21, 3:20 PM)29.71 "Hg (Jul 27, 5:20 PM)
Average84 °F59%29.82 "Hg
* Reported Jul 18 11:20 AM — Aug 2 11:50 AM, Tirana, Weather by CustomWeather, © 2015

Note: Actual official high and low records may vary slightly from our data, if they occured in-between our weather recording intervals... More about our weather records

Advertising

Tirana weather history for previous 24 hours

 ConditionsComfort  
Time TempWeatherWind HumidityBarometerVisibility
11:50 AM
Sun, Aug 2
93 °FSunny.3 mph39%29.98 "Hg10 mi
11:20 AM93 °FSunny.2 mph41%30.01 "Hg10 mi
10:50 AM93 °FSunny.No wind44%30.01 "Hg10 mi
10:20 AM91 °FSunny.3 mph41%30.01 "Hg10 mi
9:50 AM90 °FSunny.2 mph52%30.01 "Hg10 mi
9:20 AM86 °FSunny.2 mph55%30.01 "Hg10 mi
8:50 AM84 °FSunny.2 mph55%30.01 "Hg10 mi
8:20 AM81 °FSunny.No wind66%29.98 "Hg10 mi
7:50 AM81 °FSunny.2 mph70%29.98 "Hg10 mi
7:20 AM77 °FSunny.3 mph79%29.98 "Hg10 mi
6:50 AM77 °FSunny.No wind79%29.98 "Hg10 mi
6:20 AM75 °FClear.2 mph83%29.95 "Hg10 mi
5:50 AM75 °FClear.3 mph83%29.95 "Hg10 mi
5:20 AM73 °FClear.6 mph89%29.95 "Hg10 mi
4:50 AM75 °FClear.5 mph89%29.95 "Hg10 mi
4:20 AM75 °FPassing clouds.5 mph89%29.95 "HgN/A
3:50 AM75 °FClear.6 mph89%29.95 "Hg10 mi
2:50 AM75 °FClear.3 mph89%29.95 "Hg10 mi
2:20 AM75 °FPassing clouds.3 mph89%29.95 "HgN/A
1:50 AM75 °FClear.No wind94%29.95 "Hg10 mi
1:20 AM75 °FClear.5 mph89%29.95 "Hg10 mi
12:50 AM75 °FClear.3 mph89%29.95 "Hg10 mi
11:20 PM
Sat, Aug 1
77 °FPassing clouds.3 mph89%29.95 "HgN/A
10:50 PM77 °FClear.2 mph89%29.95 "Hg10 mi
10:20 PM77 °FClear.2 mph83%29.95 "Hg10 mi
9:50 PM79 °FClear.No wind89%29.92 "Hg10 mi
9:20 PM79 °FClear.No wind84%29.92 "Hg10 mi
8:50 PM79 °FSunny.2 mph79%29.92 "Hg10 mi
8:20 PM79 °FSunny.5 mph74%29.89 "Hg10 mi
7:50 PM81 °FSunny.5 mph70%29.89 "Hg10 mi
7:20 PM86 °FPassing clouds.6 mph62%29.89 "HgN/A
6:50 PM88 °FPassing clouds.8 mph59%29.89 "HgN/A
6:20 PM90 °FPassing clouds.9 mph55%29.89 "HgN/A
5:50 PM91 °FPassing clouds.10 mph46%29.89 "HgN/A
5:20 PM91 °FPassing clouds.10 mph46%29.89 "HgN/A
4:50 PM93 °FPassing clouds.12 mph47%29.89 "HgN/A
4:20 PM93 °FPassing clouds.13 mph44%29.89 "HgN/A
3:20 PM95 °FPassing clouds.14 mph39%29.89 "HgN/A
2:50 PM95 °FPassing clouds.10 mph34%29.89 "HgN/A
2:20 PM95 °FPassing clouds.12 mph30%29.89 "HgN/A
1:50 PM97 °FPassing clouds.13 mph30%29.89 "HgN/A
1:20 PM95 °FSunny.14 mph32%29.89 "Hg10 mi
Weather by CustomWeather, © 2015

See weather overviewHow to use our weather pages